Location: Newark
(51.2625°N, 13.3939°E)
Time: 01:06:05
(UTC+00:00)

Explorer 7 - Pass Details

Date: 15 November 2019
Orbit: 485 x 680 km, 50.3° (Epoch: 05 December)

Event Time Altitude Azimuth Distance (km) Brightness Sun altitude
Rises 05:27:24 0° 282° (WNW) 2,727 - -8.8°
Reaches altitude 10° 05:29:46 10° 276° (W) 1,798 - -8.4°
Exits shadow 05:29:49 10° 276° (W) 1,781 8.8 -8.4°
Maximum altitude 05:33:38 44° 204° (SSW) 722 7.4 -7.8°
Drops below altitude 10° 05:37:19 10° 131° (SE) 1,705 10.7 -7.3°
Sets 05:39:31 0° 125° (SE) 2,568 12.2 -7.0°
